Location: Newark
(49.8348°N, 24.0280°E)
Time: 05:05:29
(UTC+00:00)

Courier 1B - All Passes

Search period start: 25 January 2020 00:00
Search period end: 04 February 2020 00:00
Orbit: 962 x 1209 km, 28.3° (Epoch: 24 January)

Date Brightness Start Highest point End Pass type
(mag) Time Alt. Az. Time Alt. Az. Time Alt. Az.
25 Jan - 01:40:21 10° S 01:41:47 11° SSE 01:43:14 10° SSE visible
25 Jan - 03:31:04 10° SSW 03:34:25 13° S 03:37:48 10° SSE visible
26 Jan - 02:37:44 10° SSW 02:40:55 13° S 02:44:08 10° SSE visible
26 Jan - 04:31:50 10° SSW 04:33:34 11° SSW 04:35:17 10° S visible
27 Jan - 01:44:44 10° SSW 01:47:26 12° S 01:50:11 10° SSE visible
27 Jan - 03:37:33 10° SSW 03:40:04 12° S 03:42:38 10° S visible
28 Jan - 00:52:15 10° S 00:53:59 11° S 00:55:44 10° SSE visible
28 Jan - 02:43:46 10° SSW 02:46:34 12° S 02:49:25 10° SSE visible
29 Jan - 01:50:20 10° SSW 01:53:07 12° S 01:55:55 10° SSE visible
30 Jan - 00:57:14 10° SSW 00:59:39 12° S 01:02:07 10° SSE visible
30 Jan - 02:51:24 10° SSW 02:52:15 10° SSW 02:53:06 10° S visible
31 Jan - 00:04:33 10° S 00:06:14 11° S 00:07:56 10° SSE night (unlit)
31 Jan - 01:56:59 10° SSW 01:58:48 11° S 02:00:38 10° S visible
01 Feb - 01:03:19 10° SSW 01:05:21 11° S 01:07:25 10° SSE visible
02 Feb - 00:10:01 10° SSW 00:11:56 11° S 00:13:53 10° SSE night (unlit)
02 Feb - 23:17:09 10° S 23:18:33 11° S 23:19:56 10° SSE night (unlit)
